Regional Weather Roundup
Issued by NWS Jackson, KY

Home | Current Version | Previous Version | Graphics & Text | Print | Product List | Glossary On
Versions: 1 2 3 4 5 6 7 8 9 10 11 12 13 14 15 16 17 18 19 20 21 22 23 24 25 26 27 28 29 30 31 32 33 34 35 36 37 38 39 40 41 42 43 44 45 46 47 48 49 50
000
ASUS43 KJKL 280019
RWRJKL

EAST KENTUCKY HOURLY WEATHER ROUNDUP
NATIONAL WEATHER SERVICE JACKSON KY
700 PM EST SAT DEC 27 2014

NOTE: "FAIR" INDICATES FEW OR NO CLOUDS BELOW 12,000 FEET WITH
NO SIGNIFICANT WEATHER AND/OR OBSTRUCTIONS TO VISIBILITY.

* THESE REPORTS ARE NOT UNDER NWS QUALITY CONTROL AND MAY NOT
  REPORT WEATHER SUCH AS PRECIPITATION AND FOG.

KYZ079-080-083-085-087-088-110-112-115-119-120-280100
...EASTERN KENTUCKY...

CITY           SKY/WX    TMP DP  RH WIND       PRES   REMARKS
JACKSON        CLOUDY    57  26  30 VRB3      30.12S
6HR MIN TEMP:  56; 6HR MAX TEMP:  61;

LONDON         RAIN      51  38  60 SW12      30.16R
6HR MIN TEMP:  51; 6HR MAX TEMP:  63; 6HR PCP:  0.03;

SOMERSET*      DRIZZLE   48  43  81 S6G16     30.17R
MONTICELLO*    CLOUDY    50  46  85 S7        30.18R
6HR MIN TEMP:  50; 6HR MAX TEMP:  63;

MIDDLESBORO*   DRIZZLE   53  35  50 SE5       30.18R
6HR MIN TEMP:  52; 6HR MAX TEMP:  58;

HARLAN APT*    CLOUDY    54  27  35 E9        30.16S
BLACK MTN*       N/A     50  10  20 SE8         N/A
PIKEVILLE APT* CLOUDY    59  23  25 S7        30.12S
BIG SANDY*     CLOUDY    58  28  31 CALM      30.12S
6HR MIN TEMP:  56; 6HR MAX TEMP:  62;

MOREHEAD APT*  CLOUDY    52  41  66 CALM      30.15S
ASHLAND*       CLOUDY   N/A N/A N/A NW3       30.09F
$$

KYZ035-036-041-042-044-050-067-078-099-280100
...CENTRAL KENTUCKY...

CITY           SKY/WX    TMP DP  RH WIND       PRES   REMARKS
MT STERLING*   CLOUDY    50  41  71 NW3       30.15R
FLEMING/MASON* CLOUDY    50  43  76 W9        30.14S
DANVILLE*      CLOUDY    50  41  71 CALM      30.13F
RICHMOND*      CLOUDY    52  39  62 CALM      30.12S
LEXINGTON      LGT RAIN  47  44  90 W7        30.14R
6HR MIN TEMP:  47; 6HR MAX TEMP:  52; 6HR PCP: TRACE;

FRANKFORT      CLOUDY    47  45  93 SW7       30.12F
6HR MIN TEMP:  47; 6HR MAX TEMP:  52; 6HR PCP:  0.04;

$$

KYZ091>093-OHZ055-061-077-WVZ005-015-034-035-042-280100
...SOUTHERN OHIO/WEST VIRGINIA...

CITY           SKY/WX    TMP DP  RH WIND       PRES   REMARKS
COVINGTON      LGT RAIN  48  44  86 S8        30.09F FOG
COLUMBUS       LGT RAIN  49  43  80 SW9       30.08F
DAYTON         CLOUDY    47  46  97 S12       30.05F
WILMINGTON     LGT RAIN  47  45  93 SW9       30.08F FOG
HUNTINGTON     CLOUDY    56  33  42 SW3       30.10F
CHARLESTON     MOCLDY    52  28  39 SE5       30.10F
PINEVILLE*     CLOUDY    48  40  75 MISG      30.20R
BECKLEY        MOCLDY    54  13  19 S6        30.15S
BLUEFIELD      MOCLDY    57   5  12 CALM      30.18S
$$

VAZ002-007-008-TNZ017-027-036-066-071-280100
...SOUTHWEST VIRGINIA/EAST TENNESSEE...

CITY           SKY/WX    TMP DP  RH WIND       PRES   REMARKS
WISE*          CLOUDY    50  25  37 S5        30.17S
JONESVILLE*    CLOUDY    50  41  71 CALM      30.20S
ABINGDON*      CLOUDY    52  36  54 CALM      30.18R
BRISTOL        MOCLDY    51  35  54 CALM      30.18R
KNOXVILLE      CLOUDY    50  40  68 CALM      30.18S
OAK RIDGE      CLOUDY    52  39  61 CALM      30.19F
CROSSVILLE     CLOUDY    51  36  56 SW5       30.16S
NASHVILLE      LGT RAIN  49  47  93 S5        30.15S
$$

...KEY TO REMARKS...
VSB - VISIBILITY IN MILES
WCI - WIND CHILL INDEX
HX  - HEAT INDEX

$$


USA.gov is the U.S. government's official web portal to all federal, state and local government web resources and services.